ICE2712 EDDH-ESGG

Flight info

Callsign ICE2712
Flight time N/A
Altitude 37000
Route SOKWO1G/33 SOKWO T814 EXNEL M105 AMRAK DCT GOTEX N873 LOBBI
Aircraft A20N/M-SDE2E3FGHIRWXY/LB1

Departure

Time 2026-05-04 19:46
Airport Hamburg Helmut Schmidt Airport (EDDH)

Arrival

Time N/A
Airport Göteborg Landvetter Airport (ESGG)
Time Latitude Longitude Altitude Speed Heading
2026-05-04 19:08 53.63169 10.00362 41 ft 0 kts 87°
2026-05-04 19:38 53.63169 10.00358 48 ft 3 kts 87°
2026-05-04 19:38 53.63167 10.00299 48 ft 7 kts 88°
2026-05-04 19:39 53.63178 10.00216 47 ft 7 kts 126°
2026-05-04 19:39 53.63214 10.00179 46 ft 0 kts 175°
2026-05-04 19:40 53.63208 10.00180 49 ft 4 kts 175°
2026-05-04 19:40 53.63155 10.00188 46 ft 11 kts 175°
2026-05-04 19:41 53.63067 10.00174 47 ft 14 kts 201°
2026-05-04 19:41 53.62990 10.00098 45 ft 8 kts 215°
2026-05-04 19:41 53.62940 10.00023 45 ft 11 kts 230°
2026-05-04 19:41 53.62907 9.99939 45 ft 0 kts 240°
2026-05-04 19:43 53.62898 9.99913 44 ft 5 kts 240°
2026-05-04 19:43 53.62877 9.99843 44 ft 8 kts 246°
2026-05-04 19:43 53.62883 9.99754 45 ft 9 kts 304°
2026-05-04 19:43 53.62936 9.99685 47 ft 11 kts 328°
2026-05-04 19:44 53.62944 9.99678 47 ft 0 kts 332°
2026-05-04 19:45 53.62947 9.99675 47 ft 4 kts 332°
2026-05-04 19:46 53.63187 9.99465 48 ft 74 kts 332°
2026-05-04 19:46 53.63830 9.98913 48 ft 130 kts 333°
2026-05-04 19:46 53.64726 9.98134 310 ft 147 kts 333°
2026-05-04 19:46 53.65630 9.97379 968 ft 146 kts 333°
2026-05-04 19:47 53.66557 9.96590 1609 ft 150 kts 333°
2026-05-04 19:47 53.67534 9.95750 2185 ft 167 kts 332°
2026-05-04 19:47 53.68667 9.94933 2736 ft 188 kts 342°
2026-05-04 19:47 53.70040 9.94624 3258 ft 214 kts 359°
2026-05-04 19:48 53.71570 9.94675 4069 ft 225 kts 358°
2026-05-04 19:48 53.73159 9.94858 4224 ft 228 kts 10°
2026-05-04 19:48 53.74628 9.95900 4330 ft 233 kts 31°
2026-05-04 19:48 53.76036 9.97476 4478 ft 264 kts 31°
2026-05-04 19:49 53.77625 9.99228 4602 ft 276 kts 31°
2026-05-04 19:49 53.79242 10.01002 4711 ft 278 kts 31°
2026-05-04 19:49 53.80888 10.02801 5203 ft 283 kts 31°
2026-05-04 19:49 53.82521 10.04588 6267 ft 284 kts 30°
2026-05-04 19:50 53.84199 10.06425 7224 ft 289 kts 30°
2026-05-04 19:50 53.85904 10.08290 8186 ft 294 kts 30°
2026-05-04 19:50 53.87648 10.10153 9023 ft 302 kts 25°
2026-05-04 19:50 53.89620 10.11158 9164 ft 292 kts 359°
2026-05-04 19:51 53.91607 10.10778 9297 ft 287 kts 343°
2026-05-04 19:51 53.93548 10.09963 9423 ft 287 kts 341°
2026-05-04 19:51 53.95498 10.09092 9752 ft 291 kts 341°
2026-05-04 19:51 53.97459 10.08253 10484 ft 300 kts 342°
2026-05-04 19:52 53.99580 10.07383 10856 ft 324 kts 343°
2026-05-04 19:52 54.01842 10.06493 11343 ft 340 kts 343°
2026-05-04 19:52 54.04166 10.05605 12220 ft 344 kts 343°
2026-05-04 19:52 54.06516 10.04714 13108 ft 348 kts 343°
2026-05-04 19:53 54.08892 10.03810 13932 ft 352 kts 343°
2026-05-04 19:53 54.11303 10.02888 14694 ft 357 kts 343°
2026-05-04 19:53 54.13715 10.01963 15436 ft 361 kts 343°
2026-05-04 19:53 54.16180 10.01014 16172 ft 365 kts 343°
2026-05-04 19:54 54.18687 10.00048 16911 ft 370 kts 343°
2026-05-04 19:54 54.21223 9.99068 17644 ft 374 kts 343°
2026-05-04 19:54 54.23781 9.98079 18354 ft 379 kts 343°
2026-05-04 19:54 54.26333 9.97093 18993 ft 382 kts 342°
2026-05-04 19:55 54.28933 9.96087 19681 ft 384 kts 342°
2026-05-04 19:55 54.31562 9.95069 20338 ft 387 kts 342°
2026-05-04 19:55 54.34205 9.94043 21002 ft 389 kts 342°
2026-05-04 19:55 54.36830 9.93024 21645 ft 393 kts 341°
2026-05-04 19:56 54.39504 9.91985 22286 ft 395 kts 341°
2026-05-04 19:56 54.42197 9.90936 22915 ft 398 kts 341°
2026-05-04 19:56 54.44926 9.89943 23539 ft 405 kts 346°
2026-05-04 19:56 54.47804 9.89921 24035 ft 421 kts
2026-05-04 19:57 54.50711 9.91013 24496 ft 431 kts
2026-05-04 19:57 54.53588 9.92409 24956 ft 436 kts 10°
2026-05-04 19:57 54.56515 9.93883 25421 ft 440 kts 10°
2026-05-04 19:57 54.59473 9.95349 25881 ft 443 kts 10°
2026-05-04 19:58 54.62462 9.96798 26311 ft 447 kts
2026-05-04 19:58 54.65473 9.98235 26725 ft 451 kts
2026-05-04 19:58 54.68492 9.99667 26846 ft 452 kts
2026-05-04 19:58 54.71530 10.01108 26950 ft 452 kts
2026-05-04 19:59 54.74564 10.02547 26999 ft 453 kts
2026-05-04 19:59 54.77617 10.03997 26996 ft 452 kts
2026-05-04 19:59 54.80625 10.05426 27174 ft 455 kts
2026-05-04 19:59 54.83685 10.06883 27674 ft 456 kts
2026-05-04 20:00 54.86756 10.08348 27826 ft 458 kts
2026-05-04 20:00 54.89837 10.09820 27942 ft 458 kts
2026-05-04 20:00 54.92910 10.11288 27994 ft 458 kts
2026-05-04 20:00 54.95946 10.12742 27993 ft 457 kts 10°
2026-05-04 20:01 54.99019 10.14217 27995 ft 456 kts 10°
2026-05-04 20:01 55.02083 10.15691 27999 ft 456 kts 10°
2026-05-04 20:01 55.05137 10.17230 27987 ft 458 kts 15°
2026-05-04 20:01 55.08024 10.19668 27995 ft 465 kts 29°
2026-05-04 20:02 55.10576 10.23222 27991 ft 470 kts 43°
2026-05-04 20:02 55.12631 10.27689 27988 ft 474 kts 56°
2026-05-04 20:02 55.14266 10.32613 28106 ft 475 kts 59°
2026-05-04 20:02 55.15886 10.37657 28530 ft 476 kts 59°
2026-05-04 20:03 55.17504 10.42712 29068 ft 475 kts 59°
2026-05-04 20:03 55.19120 10.47773 29645 ft 474 kts 59°
2026-05-04 20:03 55.20724 10.52811 30187 ft 473 kts 59°
2026-05-04 20:03 55.22325 10.57842 30683 ft 471 kts 59°
2026-05-04 20:04 55.23922 10.62853 31178 ft 470 kts 58°
2026-05-04 20:04 55.25779 10.67426 31680 ft 463 kts 45°
2026-05-04 20:04 55.28155 10.71180 32206 ft 455 kts 32°
2026-05-04 20:04 55.30898 10.73873 32738 ft 446 kts 18°
2026-05-04 20:05 55.33828 10.75438 33281 ft 436 kts
2026-05-04 20:05 55.36810 10.76223 33836 ft 430 kts
2026-05-04 20:05 55.39762 10.76994 34328 ft 426 kts
2026-05-04 20:05 55.42640 10.77761 34800 ft 421 kts
2026-05-04 20:06 55.45523 10.78534 35282 ft 415 kts
2026-05-04 20:06 55.48367 10.79296 35775 ft 409 kts
2026-05-04 20:06 55.51104 10.80030 36264 ft 402 kts
2026-05-04 20:06 55.53875 10.80774 36711 ft 397 kts
2026-05-04 20:07 55.56623 10.81507 36877 ft 398 kts
2026-05-04 20:07 55.62132 10.82976 36975 ft 407 kts
2026-05-04 20:08 55.67798 10.84495 36974 ft 418 kts
2026-05-04 20:08 55.73625 10.86064 36973 ft 430 kts
2026-05-04 20:09 55.79629 10.87688 36975 ft 442 kts
2026-05-04 20:09 55.85792 10.89360 36972 ft 453 kts
2026-05-04 20:10 55.92050 10.91067 36973 ft 454 kts
2026-05-04 20:10 55.98305 10.92778 36970 ft 454 kts
2026-05-04 20:11 56.04511 10.94478 36970 ft 454 kts
2026-05-04 20:11 56.10782 10.96201 36966 ft 454 kts
2026-05-04 20:12 56.17039 10.97926 36968 ft 454 kts
2026-05-04 20:12 56.23272 10.99649 36969 ft 455 kts
2026-05-04 20:13 56.29541 11.01389 36968 ft 455 kts
2026-05-04 20:13 56.35815 11.03134 36460 ft 456 kts
2026-05-04 20:13 56.38921 11.04001 35806 ft 458 kts
2026-05-04 20:14 56.42089 11.04886 34972 ft 461 kts
2026-05-04 20:14 56.45268 11.05776 33891 ft 462 kts
2026-05-04 20:14 56.48441 11.06670 32980 ft 459 kts
2026-05-04 20:14 56.51587 11.07581 32275 ft 457 kts
2026-05-04 20:15 56.54735 11.08492 31484 ft 457 kts
2026-05-04 20:15 56.57827 11.09378 30897 ft 453 kts
2026-05-04 20:15 56.60921 11.10257 30328 ft 448 kts
2026-05-04 20:15 56.64007 11.11130 29717 ft 445 kts
2026-05-04 20:16 56.67048 11.11988 29146 ft 439 kts
2026-05-04 20:16 56.70063 11.12840 28589 ft 434 kts
2026-05-04 20:16 56.72995 11.13670 28037 ft 429 kts
2026-05-04 20:16 56.75940 11.14505 27485 ft 424 kts
2026-05-04 20:17 56.78843 11.15329 26942 ft 420 kts
2026-05-04 20:17 56.81721 11.16148 26404 ft 415 kts
2026-05-04 20:17 56.84566 11.16958 25855 ft 412 kts
2026-05-04 20:17 56.87355 11.17754 25340 ft 408 kts
2026-05-04 20:18 56.90148 11.18553 24802 ft 405 kts
2026-05-04 20:18 56.92929 11.19349 24278 ft 402 kts
2026-05-04 20:18 56.95692 11.20142 23711 ft 401 kts
2026-05-04 20:18 56.98436 11.20932 23173 ft 393 kts
2026-05-04 20:19 57.01096 11.21705 22651 ft 380 kts
2026-05-04 20:19 57.03688 11.22453 22152 ft 382 kts
2026-05-04 20:19 57.06398 11.23211 21619 ft 402 kts
2026-05-04 20:19 57.09115 11.23989 21441 ft 395 kts
2026-05-04 20:20 57.11785 11.24776 21296 ft 380 kts
2026-05-04 20:20 57.14369 11.25538 20999 ft 372 kts
2026-05-04 20:20 57.16912 11.26278 20522 ft 368 kts
2026-05-04 20:20 57.19418 11.27468 20008 ft 376 kts 17°
2026-05-04 20:21 57.21699 11.29928 19502 ft 385 kts 34°
2026-05-04 20:21 57.23580 11.33377 19057 ft 386 kts 43°
2026-05-04 20:21 57.27215 11.40639 18128 ft 381 kts 43°
2026-05-04 20:22 57.29012 11.44228 17618 ft 379 kts 43°
2026-05-04 20:22 57.30799 11.47801 17103 ft 377 kts 43°
2026-05-04 20:22 57.32575 11.51350 16600 ft 375 kts 43°
2026-05-04 20:22 57.34325 11.54853 16118 ft 373 kts 43°
2026-05-04 20:23 57.36083 11.58375 15636 ft 371 kts 43°
2026-05-04 20:23 57.37840 11.61895 14954 ft 375 kts 43°
2026-05-04 20:23 57.39636 11.65495 14139 ft 383 kts 43°
2026-05-04 20:23 57.40842 11.67917 13548 ft 389 kts 43°
2026-05-04 20:24 57.42697 11.71650 12682 ft 395 kts 43°
2026-05-04 20:24 57.44541 11.75376 12212 ft 388 kts 44°
2026-05-04 20:24 57.46938 11.80235 11548 ft 382 kts 44°
2026-05-04 20:24 57.48146 11.82686 11207 ft 379 kts 44°
2026-05-04 20:25 57.49896 11.86236 10715 ft 374 kts 44°
2026-05-04 20:25 57.51639 11.89780 10389 ft 365 kts 44°
2026-05-04 20:25 57.53324 11.93215 10240 ft 351 kts 44°
2026-05-04 20:25 57.54973 11.96408 10111 ft 335 kts 36°
2026-05-04 20:26 57.56806 11.98926 9988 ft 317 kts 25°
2026-05-04 20:26 57.58701 12.00805 9710 ft 309 kts 21°
2026-05-04 20:26 57.60626 12.02664 9291 ft 306 kts 21°
2026-05-04 20:26 57.62512 12.04502 8885 ft 305 kts 21°
2026-05-04 20:27 57.64358 12.06311 8516 ft 302 kts 22°
2026-05-04 20:27 57.66211 12.08129 8131 ft 299 kts 22°
2026-05-04 20:27 57.68049 12.09935 7749 ft 297 kts 22°
2026-05-04 20:27 57.69877 12.11728 7358 ft 295 kts 22°
2026-05-04 20:28 57.71691 12.13507 7000 ft 292 kts 22°
2026-05-04 20:28 57.73473 12.15257 6639 ft 290 kts 22°
2026-05-04 20:28 57.75252 12.17006 6290 ft 288 kts 22°
2026-05-04 20:28 57.77023 12.18752 5884 ft 287 kts 22°
2026-05-04 20:29 57.78771 12.20480 5593 ft 281 kts 22°
2026-05-04 20:29 57.80496 12.22185 5233 ft 278 kts 22°
2026-05-04 20:29 57.82200 12.23871 4964 ft 275 kts 22°
2026-05-04 20:29 57.83878 12.25533 4687 ft 270 kts 22°
2026-05-04 20:30 57.85511 12.27229 4391 ft 268 kts 30°
2026-05-04 20:30 57.86751 12.29859 4104 ft 273 kts 59°
2026-05-04 20:30 57.87264 12.33237 3824 ft 273 kts 83°
2026-05-04 20:30 57.87273 12.36765 3533 ft 269 kts 102°
2026-05-04 20:31 57.86541 12.39914 3255 ft 261 kts 133°
2026-05-04 20:31 57.85133 12.41929 3107 ft 248 kts 165°
2026-05-04 20:31 57.83528 12.42431 3010 ft 223 kts 189°
2026-05-04 20:31 57.82069 12.42019 3000 ft 203 kts 203°
2026-05-04 20:32 57.80768 12.41151 2991 ft 199 kts 210°
2026-05-04 20:32 57.79528 12.40086 2890 ft 195 kts 213°
2026-05-04 20:32 57.78319 12.38978 2702 ft 192 kts 213°
2026-05-04 20:32 57.77084 12.37844 2628 ft 199 kts 213°
2026-05-04 20:33 57.75833 12.36703 2389 ft 198 kts 214°
2026-05-04 20:33 57.74613 12.35586 2136 ft 198 kts 213°
2026-05-04 20:33 57.73371 12.34447 1859 ft 197 kts 213°
2026-05-04 20:33 57.72142 12.33323 1587 ft 197 kts 213°
2026-05-04 20:34 57.70920 12.32207 1408 ft 199 kts 211°
2026-05-04 20:34 57.69649 12.31054 1783 ft 206 kts 212°
2026-05-04 20:34 57.68408 12.29919 1971 ft 194 kts 212°
2026-05-04 20:34 57.67193 12.28841 2190 ft 200 kts 210°
2026-05-04 20:35 57.65795 12.27794 2661 ft 230 kts 208°
2026-05-04 20:35 57.64206 12.26586 3160 ft 260 kts 208°
2026-05-04 20:35 57.62358 12.25156 2991 ft 309 kts 207°
2026-05-04 20:35 57.60393 12.23581 4185 ft 304 kts 206°